Regional Weather Roundup
Issued by NWS Green Bay, WI

Home | Current Version | Previous Version | Graphics & Text | Print | Product List | Glossary Off
Versions: 1 2 3 4 5 6 7 8 9 10 11 12 13 14 15 16 17 18 19 20 21 22 23 24 25 26 27 28 29 30 31 32 33 34 35 36 37 38 39 40 41 42 43 44 45 46 47 48 49 50

614
ASUS43 KGRB 282311
RWRGRB

NORTH-CENTRAL AND NORTHEAST WISCONSIN REGIONAL WEATHER ROUNDUP
NATIONAL WEATHER SERVICE GREEN BAY WI
600 PM CDT THU APR 28 2016

WIZ005-009-010>012-018-019-290000-
NORTH CENTRAL WISCONSIN

CITY           SKY/WX    TMP DP  RH WIND       PRES   REMARKS
IRONWOOD       SUNNY     45  28  53 N10       30.05R
MANITOWISH WTR SUNNY     52  29  40 N8        30.01S
ARBOR VITAE    SUNNY     57  22  25 SE7       30.00S
EAGLE RIVER    SUNNY     55  19  24 E7        30.01R
LAND O LAKES   SUNNY     55  21  26 E5        30.02S
RHINELANDER    PTSUNNY   55  21  26 E10       30.00S
PHILLIPS       CLOUDY    54  24  30 NE9       30.00R
ANTIGO         CLOUDY    46  24  42 E14G21    30.03R
TOMAHAWK       CLOUDY    52  22  31 SE3       30.01S
MERRILL        CLOUDY    45  31  59 S3        30.04R
$$

WIZ013-073-290000-
NORTHEAST WISCONSIN

CITY           SKY/WX    TMP DP  RH WIND       PRES   REMARKS
IRON MOUNTAIN  CLOUDY    53  22  29 SE8       30.02S
MARINETTE      CLOUDY    43  30  61 NE10G16   30.05F
OCONTO         CLOUDY    43  32  65 NE6       30.05S
$$

WIZ017-030-035>037-045-290000-
CENTRAL WISCONSIN

CITY           SKY/WX    TMP DP  RH WIND       PRES   REMARKS
MEDFORD        CLOUDY    40  35  80 SE8       30.03R
WAUSAU         LGT RAIN  44  33  65 E8        30.03R
MOSINEE        CLOUDY    39  37  93 VRB5      30.04R
MARSHFIELD     CLOUDY    41  35  79 NE6       30.02S
WISC RAPIDS    LGT RAIN  40  36  86 E6        30.04R
STEVENS POINT  CLOUDY    40  33  78 NE8       30.03S
WAUPACA        CLOUDY    46  32  60 NE9       30.03R
SHAWANO        CLOUDY    44  33  66 NE8       30.06R
CLINTONVILLE   CLOUDY    43  30  61 NE9       30.05R
WAUTOMA        CLOUDY    41  33  73 NE5       30.03R
$$

WIZ038-039-048-051-290000-
FOX VALLEY

CITY           SKY/WX    TMP DP  RH WIND       PRES   REMARKS
NWS GREEN BAY  CLOUDY    45  30  55 E7        30.04R
APPLETON       CLOUDY    43  30  61 E12G17    30.01R
OSHKOSH        CLOUDY    44  31  60 NE14      30.00S
FOND DU LAC    CLOUDY    43  33  68 E15       30.01S
$$

WIZ022-050-052-290000-
EAST CENTRAL WISCONSIN

CITY           SKY/WX    TMP DP  RH WIND       PRES   REMARKS
EPHRAIM        LGT RAIN  42  30  61 E3        30.05S
STURGEON BAY   CLOUDY    43  28  56 NE8       30.07S
MANITOWOC      CLOUDY    41  36  82 E8        30.04R
SHEBOYGAN      CLOUDY    39  37  92 E10       30.03R FOG
$$

LMZ563-521-522-541>543-290000-
LAKESHORE

STATION/POSITION TIME  TEMP    WIND        PRES    VSBY  WAVE
                       AIR SEA DIR/SP/G                  HT/PER
                 (UTC) (F)     (DEG/KT/KT) (MB)    (MI)  (FT/S)
SHEBOYGAN LKSHOR 2300   39      50/ 10/ 10 1017.7R
KEWAUNEE LKSHORE 2200   41                 1016.7R
NORTHPORT PIER   2200   42      60/  6/  8 1017.9S
N MID LAKE BUOY  2250   40 38   50/ 10/ 12 1018.1S         2/ 4
CHAMBERS ISLAND  2200   43      30/  8/ 11 1017.9S
MENOMINEE LKSHOR 2200   40                 1016.7S
$$




USA.gov is the U.S. government's official web portal to all federal, state and local government web resources and services.